Figure 2.12.  Middle East and North Africa: Narrowing Differences in a Two-Speed Region,,,,,,,,,,,,,,,,,
,,,,,,,,,,,,,,,,,
,,,,,,,,,,,,,,,,,
Panel 1,,,,Panel 2,,,Panel 3,,,,,Panel 4,,,,,
1. World Oil and Food Price Indices,,,,2. Tourism,,,3. Fiscal Break-Even Oil Prices,,,,,4. Middle East and North Africa: Capital Flows,,,,,
(index; 2007 = 1000),,,,(index; 2009 = 100),,,(U.S. dollars a barrel),,,,,(percent of GDP),,,,,
,,,,,,,,,,,,,,,,,
,Oil prices,Food prices,,,Average,,,,"Change in the fiscal balance break-even price, 2008�13","Fiscal balance break-even price, 2013",,,Foreign direct investment,Private portfolio flows,Private other flows,Official flows,Total flows
1/5/2007,100,100,,2007m3,92.29165,,DZA,Algeria,36,113,,1992,0.4074,0.9458,6.5864,-1.7441,6.1955
1/12/2007,94.22714,103.1497,,2007m4,88.86021,,BHR,Bahrain,39,118.7,,1993,1.0256,-1.8953,2.2775,4.0568,5.4647
1/19/2007,95.1996,103.7163,,2007m5,87.12457,,IRN,Iran,59,140,,1994,1.0684,0.47,0.2884,2.4429,4.2698
1/26/2007,100.3593,103.1993,,2007m6,85.20889,,IRQ,Iraq,-10.1,99.5,,1995,0.6381,-1.0573,-0.5444,2.2415,1.278
2/2/2007,105.234,104.9617,,2007m7,82.53666,,KWT,Kuwait,20.8,53.8,,1996,0.5528,0.2337,-1.3035,0.9505,0.4336
2/9/2007,107.5753,106.5753,,2007m8,84.69096,,LBY,Libya,52.2,98.8,,1997,1.3062,0.0251,1.2402,-3.9009,-1.3295
2/16/2007,104.9924,109.0828,,2007m9,85.5629,,OMN,Oman,32.5,94.1,,1998,1.6552,-1.3341,1.4309,0.2649,2.0169
2/23/2007,110.8086,110.4953,,2007m10,87.92999,,QAT,Qatar,21.9,46.1,,1999,0.5266,-1.9686,-0.4163,1.4613,-0.397
3/2/2007,113.1066,107.8629,,2007m11,78.44433,,SAU,Saudi Arabia,46.9,84.5,,2000,0.6837,1.2289,-0.7468,-6.6691,-5.5033
3/9/2007,111.3475,107.9665,,2007m12,74.81877,,UAE,United Arab Emirates,44.1,67.5,,2001,1.7822,-0.1226,-1.7833,-3.152,-3.2757
3/16/2007,108.938,105.8215,,2008m1,76.24539,,,,,,,2002,1.3941,-1.6238,-3.2137,0.9809,-2.4625
3/23/2007,113.9521,105.4061,,2008m2,86.5444,,,,,,,2003,2.2162,1.4586,-0.4429,-6.5382,-3.3064
3/30/2007,122.5588,103.8668,,2008m3,93.27096,,,WEO oil price 2013,,102.6,,2004,1.5699,2.0713,-1.1813,-6.5769,-4.117
4/6/2007,121.9641,104.7849,,2008m4,92.16347,,,"Change in WEO oil price, 2013�08",,5.6,,2005,2.6181,-0.2583,-2.2676,-2.1721,-2.0799
4/13/2007,122.8313,106.2244,,2008m5,92.23754,,,,,,,2006,2.7616,-0.2371,-1.836,-5.3184,-4.63
4/20/2007,118.6131,108.2051,,2008m6,97.99213,,,,,,,2007,2.5412,-0.4281,1.4308,-4.0461,-0.5022
4/27/2007,122.4999,107.856,,2008m7,98.5126,,,,,,,2008,2.4685,0.1098,-0.9924,-4.2731,-2.6872
5/4/2007,119.0963,110.0002,,2008m8,99.53457,,,,,,,2009,2.9745,0.7656,-0.5981,-2.0067,1.1352
5/11/2007,118.2725,109.199,,2008m9,92.03895,,,,,,,2010,1.5637,1.1636,-2.078,-2.798,-2.1487
5/18/2007,123.9091,110.5637,,2008m10,95.83538,,,,,,,2011,0.8695,0.2663,-2.7096,-4.4208,-5.9947
5/25/2007,124.9156,113.6823,,2008m11,94.62366,,,,,,,2012,0.9517,0.8549,-2.9287,-4.6707,-5.7929
6/1/2007,121.8093,115.0742,,2008m12,99.71926,,,,,,,2013,0.9477,0.8166,-2.0944,-5.561,-5.8911
6/8/2007,125.1045,114.5769,,2009m1,96.26629,,,,,,,2014,1.1422,0.6617,-1.9011,-4.003,-4.1002
6/15/2007,127.6936,119.1149,,2009m2,97.89789,,,,,,,2015,1.2824,0.5613,-1.3617,-3.6687,-3.1867
6/22/2007,128.4834,115.3723,,2009m3,94.00212,,,,,,,2016,1.3466,0.468,-1.1866,-2.9824,-2.3544
6/29/2007,129.5085,116.0756,,2009m4,97.76707,,,,,,,2017,1.402,0.3529,-1.0853,-2.6045,-1.9349
7/6/2007,136.6193,117.3864,,2009m5,97.91412,,,,,,,,,,,,
7/13/2007,137.7621,119.615,,2009m6,99.43418,,,,,,,,,,,,
7/20/2007,140.1127,115.4794,,2009m7,100.1186,,,,,,,,,,,,
7/27/2007,137.92,116.5673,,2009m8,104.0012,,,,,,,,,,,,
8/3/2007,140.0353,117.5187,,2009m9,104.3698,,,,,,,,,,,,
8/10/2007,128.886,118.8425,,2009m10,101.9305,,,,,,,,,,,,
8/17/2007,129.7036,116.1672,,2009m11,100.1857,,,,,,,,,,,,
8/24/2007,129.4806,118.7748,,2009m12,102.1939,,,,,,,,,,,,
8/31/2007,134.0147,119.7081,,2010m1,106.422,,,,,,,,,,,,
9/7/2007,137.375,124.2054,,2010m2,109.1795,,,,,,,,,,,,
9/14/2007,143.5938,127.22,,2010m3,112.5216,,,,,,,,,,,,
9/21/2007,146.9758,131.093,,2010m4,112.1273,,,,,,,,,,,,
9/28/2007,146.6165,133.2356,,2010m5,113.0995,,,,,,,,,,,,
10/5/2007,145.7803,128.2154,,2010m6,111.1766,,,,,,,,,,,,
10/12/2007,149.7631,129.4941,,2010m7,113.7632,,,,,,,,,,,,
10/19/2007,157.7596,130.9655,,2010m8,107.1423,,,,,,,,,,,,
10/26/2007,163.421,129.9064,,2010m9,109.7333,,,,,,,,,,,,
11/2/2007,170.7609,129.6833,,2010m10,107.1327,,,,,,,,,,,,
11/9/2007,172.1236,130.2476,,2010m11,114.8525,,,,,,,,,,,,
11/16/2007,168.7479,130.7094,,2010m12,112.7438,,,,,,,,,,,,
11/23/2007,175.6728,132.7296,,2011m1,111.3652,,,,,,,,,,,,
11/30/2007,161.7796,135.3923,,2011m2,99.20304,,,,,,,,,,,,
12/7/2007,161.0734,139.2176,,2011m3,91.34183,,,,,,,,,,,,
12/14/2007,166.8835,143.006,,2011m4,87.50868,,,,,,,,,,,,
12/21/2007,169.0793,144.2889,,2011m5,88.9567,,,,,,,,,,,,
12/28/2007,172.7368,144.0037,,2011m6,90.93924,,,,,,,,,,,,
1/4/2008,177.3762,147.1363,,2011m7,90.06666,,,,,,,,,,,,
1/11/2008,167.0073,148.8159,,2011m8,89.47378,,,,,,,,,,,,
1/18/2008,164.2943,150.5495,,2011m9,91.31485,,,,,,,,,,,,
1/25/2008,166.3415,149.4955,,2011m10,93.53204,,,,,,,,,,,,
2/1/2008,163.2971,152.5949,,2011m11,99.37227,,,,,,,,,,,,
2/8/2008,168.5125,161.5464,,2011m12,98.39047,,,,,,,,,,,,
2/15/2008,174.7313,163.3107,,2012m1,101.011,,,,,,,,,,,,
2/22/2008,179.1322,167.7944,,2012m2,100.7729,,,,,,,,,,,,
2/29/2008,183.4371,175.6095,,2012m3,102.9307,,,,,,,,,,,,
3/7/2008,189.913,168.745,,2012m4,102.5131,,,,,,,,,,,,
3/14/2008,198.69,170.3209,,2012m5,104.3815,,,,,,,,,,,,
3/21/2008,183.2791,154.0357,,2012m6,104.4185,,,,,,,,,,,,
3/28/2008,188.9591,161.1733,,2012m7,97.49786,,,,,,,,,,,,
4/4/2008,191.604,161.1347,,2012m8,96.20668,,,,,,,,,,,,
4/11/2008,198.405,163.6533,,2012m9,94.08267,,,,,,,,,,,,
4/18/2008,207.9934,168.9962,,2012m10,100.5941,,,,,,,,,,,,
4/25/2008,213.9676,165.1931,,2012m11,97.12989,,,,,,,,,,,,
5/2/2008,209.4924,164.1743,,2012m12,98.53541,,,,,,,,,,,,
5/9/2008,229.1895,168.5042,,,,,,,,,,,,,,,
5/16/2008,229.4063,166.4199,,,,,,,,,,,,,,,
5/23/2008,239.0845,165.2457,,,,,,,,,,,,,,,
5/30/2008,234.1881,162.4817,,,,,,,,,,,,,,,
6/6/2008,252.25,170.4224,,,,,,,,,,,,,,,
6/13/2008,#N/A,180.5666,,,,,,,,,,,,,,,
6/20/2008,245.4737,178.6057,,,,,,,,,,,,,,,
6/27/2008,255.666,182.2037,,,,,,,,,,,,,,,
7/4/2008,264.2107,183.2325,,,,,,,,,,,,,,,
7/11/2008,264.0311,177.5948,,,,,,,,,,,,,,,
7/18/2008,237.1427,167.9805,,,,,,,,,,,,,,,
7/25/2008,227.2446,162.7334,,,,,,,,,,,,,,,
8/1/2008,229.0904,160.3217,,,,,,,,,,,,,,,
8/8/2008,208.9411,151.3993,,,,,,,,,,,,,,,
8/15/2008,206.4263,155.2754,,,,,,,,,,,,,,,
8/22/2008,208.6097,165.0042,,,,,,,,,,,,,,,
8/29/2008,208.6252,159.0772,,,,,,,,,,,,,,,
9/5/2008,191.7031,150.4053,,,,,,,,,,,,,,,
9/12/2008,180.2379,150.0434,,,,,,,,,,,,,,,
9/19/2008,183.2729,145.8765,,,,,,,,,,,,,,,
9/26/2008,189.2038,147.0714,,,,,,,,,,,,,,,
10/3/2008,165.2358,132.3695,,,,,,,,,,,,,,,
10/10/2008,137.7838,122.3703,,,,,,,,,,,,,,,
10/17/2008,124.9806,119.7892,,,,,,,,,,,,,,,
10/24/2008,111.6232,114.1589,,,,,,,,,,,,,,,
10/31/2008,118.2477,118.7963,,,,,,,,,,,,,,,
11/7/2008,105.5251,115.8608,,,,,,,,,,,,,,,
11/14/2008,96.05438,114.1285,,,,,,,,,,,,,,,
11/21/2008,86.43811,107.1787,,,,,,,,,,,,,,,
11/28/2008,96.17207,111.2561,,,,,,,,,,,,,,,
12/5/2008,70.83217,104.5933,,,,,,,,,,,,,,,
12/12/2008,83.35656,111.9091,,,,,,,,,,,,,,,
12/19/2008,71.19143,113.6222,,,,,,,,,,,,,,,
12/26/2008,66.37864,118.17,,,,,,,,,,,,,,,
1/2/2009,81.03379,120.6481,,,,,,,,,,,,,,,
1/9/2009,76.48115,124.9847,,,,,,,,,,,,,,,
1/16/2009,74.70965,121.9893,,,,,,,,,,,,,,,
1/23/2009,84.73164,121.2478,,,,,,,,,,,,,,,
1/30/2009,80.13565,118.4522,,,,,,,,,,,,,,,
2/6/2009,79.37997,119.9545,,,,,,,,,,,,,,,
2/13/2009,76.79086,117.789,,,,,,,,,,,,,,,
2/20/2009,75.23615,112.275,,,,,,,,,,,,,,,
2/27/2009,81.05237,112.3089,,,,,,,,,,,,,,,
3/6/2009,80.72409,113.922,,,,,,,,,,,,,,,
3/13/2009,82.85484,114.7515,,,,,,,,,,,,,,,
3/20/2009,92.13974,119.359,,,,,,,,,,,,,,,
3/27/2009,94.01654,116.1337,,,,,,,,,,,,,,,
4/3/2009,94.18378,122.1625,,,,,,,,,,,,,,,
4/10/2009,96.01722,121.8146,,,,,,,,,,,,,,,
4/17/2009,94.65453,123.4641,,,,,,,,,,,,,,,
4/24/2009,92.86754,125.3202,,,,,,,,,,,,,,,
5/1/2009,96.20614,128.7131,,,,,,,,,,,,,,,
5/8/2009,106.4325,129.5676,,,,,,,,,,,,,,,
5/15/2009,104.5867,131.4809,,,,,,,,,,,,,,,
5/22/2009,110.4463,133.4802,,,,,,,,,,,,,,,
5/29/2009,121.0072,135.4556,,,,,,,,,,,,,,,
6/5/2009,125.7828,136.8612,,,,,,,,,,,,,,,
6/12/2009,131.6052,136.0793,,,,,,,,,,,,,,,
6/19/2009,127.4304,128.7275,,,,,,,,,,,,,,,
6/26/2009,127.034,128.0412,,,,,,,,,,,,,,,
7/3/2009,122.4318,126.5052,,,,,,,,,,,,,,,
7/10/2009,110.4029,121.1796,,,,,,,,,,,,,,,
7/17/2009,119.0436,118.2762,,,,,,,,,,,,,,,
7/24/2009,126.4332,117.6888,,,,,,,,,,,,,,,
7/31/2009,130.8805,122.4312,,,,,,,,,,,,,,,
8/7/2009,134.919,121.3517,,,,,,,,,,,,,,,
8/14/2009,129.4311,117.6412,,,,,,,,,,,,,,,
8/21/2009,136.195,114.8421,,,,,,,,,,,,,,,
8/28/2009,134.7642,116.3492,,,,,,,,,,,,,,,
9/4/2009,123.4476,111.5026,,,,,,,,,,,,,,,
9/11/2009,128.6816,110.504,,,,,,,,,,,,,,,
9/18/2009,131.822,112.0841,,,,,,,,,,,,,,,
9/25/2009,120.7036,111.4566,,,,,,,,,,,,,,,
10/2/2009,126.0677,108.4613,,,,,,,,,,,,,,,
10/9/2009,130.5739,113.6559,,,,,,,,,,,,,,,
10/16/2009,141.144,116.0791,,,,,,,,,,,,,,,
10/23/2009,145.74,119.885,,,,,,,,,,,,,,,
10/30/2009,140.887,116.5778,,,,,,,,,,,,,,,
11/6/2009,141.2091,116.6466,,,,,,,,,,,,,,,
11/13/2009,140.5432,120.1975,,,,,,,,,,,,,,,
11/20/2009,142.4076,122.8447,,,,,,,,,,,,,,,
11/27/2009,141.4847,123.5926,,,,,,,,,,,,,,,
12/4/2009,142.9775,123.8751,,,,,,,,,,,,,,,
12/11/2009,131.3327,123.9101,,,,,,,,,,,,,,,
12/18/2009,134.7146,123.0782,,,,,,,,,,,,,,,
12/25/2009,139.2239,121.8885,,,,,,,,,,,,,,,
1/1/2010,145.517,124.7204,,,,,,,,,,,,,,,
1/8/2010,150.7015,126.3113,,,,,,,,,,,,,,,
1/15/2010,143.089,120.5719,,,,,,,,,,,,,,,
1/22/2010,135.7119,119.7888,,,,,,,,,,,,,,,
1/29/2010,133.7174,117.1348,,,,,,,,,,,,,,,
2/5/2010,130.8371,116.9484,,,,,,,,,,,,,,,
2/12/2010,134.1881,119.4074,,,,,,,,,,,,,,,
2/19/2010,144.495,119.3901,,,,,,,,,,,,,,,
2/26/2010,143.5783,121.0248,,,,,,,,,,,,,,,
3/5/2010,148.2115,119.5312,,,,,,,,,,,,,,,
3/12/2010,147.8646,117.9239,,,,,,,,,,,,,,,
3/19/2010,145.9444,119.2518,,,,,,,,,,,,,,,
3/26/2010,145.4923,117.8575,,,,,,,,,,,,,,,
4/2/2010,153.2782,117.1151,,,,,,,,,,,,,,,
4/9/2010,154.517,119.9315,,,,,,,,,,,,,,,
4/16/2010,155.7744,123.1987,,,,,,,,,,,,,,,
4/23/2010,158.2458,123.9886,,,,,,,,,,,,,,,
4/30/2010,159.6829,124.3932,,,,,,,,,,,,,,,
5/7/2010,141.5157,123.0804,,,,,,,,,,,,,,,
5/14/2010,138.4558,121.0405,,,,,,,,,,,,,,,
5/21/2010,129.555,120.9729,,,,,,,,,,,,,,,
5/28/2010,136.164,118.3493,,,,,,,,,,,,,,,
6/4/2010,133.5625,115.6428,,,,,,,,,,,,,,,
6/11/2010,136.4923,115.3404,,,,,,,,,,,,,,,
6/18/2010,142.5749,117.0084,,,,,,,,,,,,,,,
6/25/2010,142.1289,115.4373,,,,,,,,,,,,,,,
7/2/2010,132.2741,116.8678,,,,,,,,,,,,,,,
7/9/2010,139.2425,120.486,,,,,,,,,,,,,,,
7/16/2010,139.1186,122.4517,,,,,,,,,,,,,,,
7/23/2010,143.0023,122.6784,,,,,,,,,,,,,,,
7/30/2010,143.5349,127.3455,,,,,,,,,,,,,,,
8/6/2010,148.3415,131.4031,,,,,,,,,,,,,,,
8/13/2010,138.047,132.6155,,,,,,,,,,,,,,,
8/20/2010,135.396,131.0349,,,,,,,,,,,,,,,
8/27/2010,138.5983,131.6518,,,,,,,,,,,,,,,
9/3/2010,138.1213,134.9938,,,,,,,,,,,,,,,
9/10/2010,142.2466,135.6981,,,,,,,,,,,,,,,
9/17/2010,140.4008,139.9191,,,,,,,,,,,,,,,
9/24/2010,142.3333,142.455,,,,,,,,,,,,,,,
10/1/2010,151.4819,135.5948,,,,,,,,,,,,,,,
10/8/2010,153.6498,143.0465,,,,,,,,,,,,,,,
10/15/2010,150.0697,145.1089,,,,,,,,,,,,,,,
10/22/2010,149.3512,144.5282,,,,,,,,,,,,,,,
10/29/2010,151.1227,147.6256,,,,,,,,,,,,,,,
11/5/2010,160.2527,150.2051,,,,,,,,,,,,,,,
11/12/2010,157.9609,146.4415,,,,,,,,,,,,,,,
11/19/2010,152.5659,142.7907,,,,,,,,,,,,,,,
11/26/2010,155.9478,144.6975,,,,,,,,,,,,,,,
12/3/2010,165.4248,154.2581,,,,,,,,,,,,,,,
12/10/2010,164.316,153.5925,,,,,,,,,,,,,,,
12/17/2010,166.23,154.7385,,,,,,,,,,,,,,,
12/24/2010,169.7792,158.4841,,,,,,,,,,,,,,,
12/31/2010,171.7303,161.5561,,,,,,,,,,,,,,,
1/7/2011,168.0201,158.6861,,,,,,,,,,,,,,,
1/14/2011,175.8741,163.7637,,,,,,,,,,,,,,,
1/21/2011,172.6656,166.3341,,,,,,,,,,,,,,,
1/28/2011,181.5169,166.67,,,,,,,,,,,,,,,
2/4/2011,174.8707,172.2279,,,,,,,,,,,,,,,
2/11/2011,174.0902,174.5911,,,,,,,,,,,,,,,
2/18/2011,176.7444,170.2329,,,,,,,,,,,,,,,
2/25/2011,194.8218,167.9515,,,,,,,,,,,,,,,
3/4/2011,204.4659,150.8028,,,,,,,,,,,,,,,
3/11/2011,199.777,160.8444,,,,,,,,,,,,,,,
3/18/2011,199.7956,164.1511,,,,,,,,,,,,,,,
3/25/2011,204.3916,163.9134,,,,,,,,,,,,,,,
4/1/2011,209.6875,169.3105,,,,,,,,,,,,,,,
4/8/2011,221.7535,171.7919,,,,,,,,,,,,,,,
4/15/2011,216.4576,167.4299,,,,,,,,,,,,,,,
4/22/2011,218.3468,171.8341,,,,,,,,,,,,,,,
4/29/2011,222.246,171.8694,,,,,,,,,,,,,,,
5/6/2011,194.732,166.5182,,,,,,,,,,,,,,,
5/13/2011,197.7639,167.1212,,,,,,,,,,,,,,,
5/20/2011,197.5688,175.9289,,,,,,,,,,,,,,,
5/27/2011,200.7805,175.6591,,,,,,,,,,,,,,,
6/3/2011,200.9291,175.0169,,,,,,,,,,,,,,,
6/10/2011,204.0633,173.3217,,,,,,,,,,,,,,,
6/17/2011,194.351,166.8698,,,,,,,,,,,,,,,
6/24/2011,184.1153,164.4626,,,,,,,,,,,,,,,
7/1/2011,193.6077,162.1174,,,,,,,,,,,,,,,
7/8/2011,202.5643,164.9171,,,,,,,,,,,,,,,
7/15/2011,202.8121,170.1541,,,,,,,,,,,,,,,
7/22/2011,205.4229,170.2253,,,,,,,,,,,,,,,
7/29/2011,200.5141,167.907,,,,,,,,,,,,,,,
8/5/2011,185.8652,169.992,,,,,,,,,,,,,,,
8/12/2011,183.8459,170.8916,,,,,,,,,,,,,,,
8/19/2011,183.3504,172.119,,,,,,,,,,,,,,,
8/26/2011,188.157,177.1836,,,,,,,,,,,,,,,
9/2/2011,191.4026,175.8856,,,,,,,,,,,,,,,
9/9/2011,191.4956,172.2876,,,,,,,,,,,,,,,
9/16/2011,193.2733,167.2431,,,,,,,,,,,,,,,
9/23/2011,178.8101,159.5784,,,,,,,,,,,,,,,
9/30/2011,177.497,153.9809,,,,,,,,,,,,,,,
10/7/2011,178.7296,152.8243,,,,,,,,,,,,,,,
10/14/2011,191.6132,159.9001,,,,,,,,,,,,,,,
10/21/2011,187.5283,159.0416,,,,,,,,,,,,,,,
10/28/2011,191.4088,159.6325,,,,,,,,,,,,,,,
11/4/2011,194.5678,158.1603,,,,,,,,,,,,,,,
11/11/2011,199.8823,154.3426,,,,,,,,,,,,,,,
11/18/2011,192.0654,151.8084,,,,,,,,,,,,,,,
11/25/2011,190.4426,147.1845,,,,,,,,,,,,,,,
12/2/2011,195.8438,149.4271,,,,,,,,,,,,,,,
12/9/2011,194.4253,147.1139,,,,,,,,,,,,,,,
12/16/2011,183.4804,146.5206,,,,,,,,,,,,,,,
12/23/2011,194.2271,150.2469,,,,,,,,,,,,,,,
12/30/2011,192.4556,154.3977,,,,,,,,,,,,,,,
1/6/2012,200.5822,153.1432,,,,,,,,,,,,,,,
1/13/2012,195.9739,150.0515,,,,,,,,,,,,,,,
1/20/2012,194.6607,151.967,,,,,,,,,,,,,,,
1/27/2012,197.9931,156.0199,,,,,,,,,,,,,,,
2/3/2012,198.6807,156.0661,,,,,,,,,,,,,,,
2/10/2012,204.7694,154.3478,,,,,,,,,,,,,,,
2/17/2012,210.437,157.9053,,,,,,,,,,,,,,,
2/24/2012,222.3048,158.9537,,,,,,,,,,,,,,,
3/2/2012,218.4831,162.2923,,,,,,,,,,,,,,,
3/9/2012,223.11,161.4933,,,,,,,,,,,,,,,
3/16/2012,221.8836,164.8453,,,,,,,,,,,,,,,
3/23/2012,220.1338,162.8155,,,,,,,,,,,,,,,
3/30/2012,214.9463,163.1145,,,,,,,,,,,,,,,
4/6/2012,216.724,164.8534,,,,,,,,,,,,,,,
4/13/2012,212.2085,163.7977,,,,,,,,,,,,,,,
4/20/2012,208.9442,163.0773,,,,,,,,,,,,,,,
4/27/2012,210.406,166.3912,,,,,,,,,,,,,,,
5/4/2012,198.0427,163.5504,,,,,,,,,,,,,,,
5/11/2012,197.0888,158.9744,,,,,,,,,,,,,,,
5/18/2012,189.0799,164.311,,,,,,,,,,,,,,,
5/25/2012,187.0513,160.7654,,,,,,,,,,,,,,,
6/1/2012,172.6656,155.654,,,,,,,,,,,,,,,
6/8/2012,174.2575,162.4144,,,,,,,,,,,,,,,
6/15/2012,171.5878,158.5957,,,,,,,,,,,,,,,
6/22/2012,160.8628,165.1627,,,,,,,,,,,,,,,
6/29/2012,172.5603,171.4513,,,,,,,,,,,,,,,
7/6/2012,172.2196,179.9927,,,,,,,,,,,,,,,
7/13/2012,178.2527,183.3295,,,,,,,,,,,,,,,
7/20/2012,187.1411,192.7503,,,,,,,,,,,,,,,
7/27/2012,185.6484,186.8932,,,,,,,,,,,,,,,
8/3/2012,189.3648,186.9758,,,,,,,,,,,,,,,
8/10/2012,195.6394,186.8613,,,,,,,,,,,,,,,
8/17/2012,199.2567,184.7283,,,,,,,,,,,,,,,
8/24/2012,198.7519,187.0822,,,,,,,,,,,,,,,
8/31/2012,199.7646,185.702,,,,,,,,,,,,,,,
9/7/2012,199.0957,182.9177,,,,,,,,,,,,,,,
9/14/2012,204.8561,183.5236,,,,,,,,,,,,,,,
9/21/2012,194.3417,177.9841,,,,,,,,,,,,,,,
9/28/2012,194.4873,178.4076,,,,,,,,,,,,,,,
10/5/2012,193.0441,175.1575,,,,,,,,,,,,,,,
10/12/2012,196.8596,176.2461,,,,,,,,,,,,,,,
10/19/2012,190.6408,178.0689,,,,,,,,,,,,,,,
10/26/2012,187.8101,178.99,,,,,,,,,,,,,,,
11/2/2012,182.7929,176.667,,,,,,,,,,,,,,,
11/9/2012,187.7853,174.5424,,,,,,,,,,,,,,,
11/16/2012,186.9987,169.0707,,,,,,,,,,,,,,,
11/23/2012,189.7798,170.5683,,,,,,,,,,,,,,,
11/30/2012,190.7182,174.0589,,,,,,,,,,,,,,,
12/7/2012,184.0472,174.7882,,,,,,,,,,,,,,,
12/14/2012,186.1934,172.6291,,,,,,,,,,,,,,,
12/21/2012,188.2499,168.9401,,,,,,,,,,,,,,,
12/28/2012,190.8576,168.0616,,,,,,,,,,,,,,,
1/4/2013,193.4343,165.6901,,,,,,,,,,,,,,,
1/11/2013,192.6043,166.6957,,,,,,,,,,,,,,,
1/18/2013,195.4164,170.7373,,,,,,,,,,,,,,,
1/25/2013,197.1879,171.4508,,,,,,,,,,,,,,,
2/1/2013,202.8431,173.9285,,,,,,,,,,,,,,,
2/8/2013,203.3634,172.5218,,,,,,,,,,,,,,,
2/15/2013,201.8644,169.352,,,,,,,,,,,,,,,
2/22/2013,195.723,167.985,,,,,,,,,,,,,,,
3/1/2013,189.4205,167.825,,,,,,,,,,,,,,,
3/8/2013,190.9567,168.0054,,,,,,,,,,,,,,,
3/15/2013,190.6965,166.4973,,,,,,,,,,,,,,,
3/22/2013,188.7857,167.7494,,,,,,,,,,,,,,,
